CZ-3B DEB, 42474

Orbit data source: Space-Track

CZ-3B DEB, 42474 is space debris in HEO originally from a launch on Mon, 19 Dec 2011 UTC launched from the Xichang Space Center, China (XSC). Debris objects in space refer to the collection of defunct objects orbiting the Earth. Examples of debris include non-operational satellites, rocket bodies, and fragments generated from explosions, collisions, or faulty payload assembly.

Loading next visibility...
CZ-3B DEB details
Identifier
42474, 2011-077AP
Orbit
HEO
Last TLE update1 month ago
Origin
Flag of CNCASC (CN / PRC)
ManufacturerCALT
MissionSpacecraft
Bus & MotorUnknown
MassUnknown
Launch date (UTC)
2011-12-19 (13 years ago)
Launch vehicleUnknown
Launch site
Xichang Space Center, China (XSC)
Object type
Payload
Rocket body
Debris
Shape & HBRUnknown
Radar Cross SectionMedium (>0.1 m² and <1 m²)

Expand to show TLE details & history

TLE from 1 month ago
0 CZ-3B DEB
1 42474U 11077AP  24360.74651772 -.00000016  00000-0  00000+0 0  9998
2 42474  21.0934 188.9532 7259070 257.8553  19.4644  1.66957082 59829
Epoch: 2024-12-25T17:54Z
Definitive object data (Epoch: 2024-12-25T17:54:59.131Z)
Latitude-0.0004°
Longitude-174.50842°
Altitude10,342.178 km
Speed5.865 km/s
True Right ascension12h 35m 53s
True Declination0° 00' 01"
Sunlit
Object was in daylight at TLE epoch
Visualization TLE readout
Latitude11.48633°
Longitude-32.73471°
Altitude16,725.133 km
Speed4.607 km/s
Apparent Right ascension22h 51m 18s
Apparent Declination1° 16' 39"
Sunlit
Object is in daylight
Visualization observer readout
Local Sidereal Time15:52:30
Azimuth79.461° E
Elevation-10.387°
Doppler factor1
Orbital elements
Apogee altitude45,430.501 km
Perigee altitude1,849.644 km
Semi-major axis30,018.21 km
Eccentricity0.725907
Inclination21.0934°
RAAN188.9532°
Arg. of periapsis257.8553°
True anomaly102.03058°
Mean anomaly19.4644°
Eccentric anomaly52.43022°
Mean motion0.41732 °/min
BSTARUnknown
Orbital period862.65 mins
Loading maneuver chart data...
Loading historical data...
Loading historical data...
Loading historical data...
Loading historical data...
Loading historical data...
Loading historical data...
Loading historical data...

CZ-3B DEB Visibility forecast

Observer location: undefined°, undefined

Span
Click to sort rows by Start time (UTC) header in descending order
Start Az.
Max El. time (UTC)
Max El. Az.
Max El.
End time (UTC)
End Az.
286 mins2025-01-24 17:10:17.849Z261.994° W2025-01-24 18:46:17.849Z266.37° W21.9°2025-01-24 21:56:17.849Z282.999° WNW
304 mins2025-01-25 09:32:17.849Z81.548° E2025-01-25 14:36:17.849Z107.796° ESE36.022°2025-01-25 14:36:17.849Z107.796° ESE
|